Starlink 31841

operational
NORAD ID: 59732 Int'l Des: 2024-090 Owner: SPXS Country: US Constellation: starlink
LEOCIRCULAR

Über Starlink 31841

Beschreibung wird geladen...

Live-Position

3D-Globus wird geladen...

Nächste Überflüge

Höhenverlauf

Altitude vs Time

uPlot chart will show altitude changes over time

Zweizeiliger Elementsatz

1 59732U 24090C 25259.25002315 .00088356 00000-0 20371-2 0 9997
2 59732 42.9972 48.6755 0016531 315.5463 250.2990 15.41450528 5736
Epoch: 16. Sept. 2025 • Age: 9 hours

Aktueller Status

Höhe 449.4 km
Geschwindigkeit 7.65 km/s
Subsatellitenpunkt 41.25°N, 101.4°W
Startdatum 13. Mai 2024
Alter 1.3 years
Typ internet

Technische Details

Klassifizierung Payload
Masse 730.00 kg
Trockenmasse 700.00 kg
Gesamtmasse 730.00 kg
Länge 0.30 m
Durchmesser 4.10 m
Spannweite 29.00 m
Form Box + pan
Hersteller SPXS
Bus-Typ Starlink V2M
Phasenstatus In Orbit
Besitzer/Staat SPXS/US

Große Konstellationen

Loading constellations...